Tucson Davis Monthan, AZ

1:00 PM MST on November 20, 2017 (GMT -0700)
Davis-Monthan Air Force Base

Weather History for KDMA - December, 2013

Change the Weather History Date:

Wednesday, December 4, 2013

  Actual Average Record
Temperature  
Mean Temperature 55 °F -  
Max Temperature 66 °F 68 °F 81 °F (1987)
Min Temperature 44 °F 41 °F 28 °F (1999)
Degree Days  
Heating Degree Days 10    
Growing Degree Days 5 (Base 50)    
Moisture  
Dew Point 41 °F    
Average Humidity 65    
Maximum Humidity 100    
Minimum Humidity 27    
Precipitation  
Precipitation 0.02 in - - ()
Sea Level Pressure  
Sea Level Pressure 29.81 in    
Wind  
Wind Speed 8 mph (WNW)    
Max Wind Speed 21 mph    
Max Gust Speed 29 mph    
Visibility 10 miles    
Events Rain    
Averages and records for this station are not official NWS values.
T = Trace of Precipitation, MM = Missing Value Source: NWS Daily Summary

Daily Weather History Graph

Daily Weather History Graph

Search for Another Location

Airport or City:

Trip Planner

Search our weather history database for the weather conditions in past years. The results will help you decide how hot, cold, wet, or windy it might be!

Date:

Astronomy

Dec. 04, 2013 Rise Set
Actual Time 7:09 AM MST 5:18 PM MST
Civil Twilight 6:42 AM MST 5:45 PM MST
Nautical Twilight 6:12 AM MST 6:15 PM MST
Astronomical Twilight 5:42 AM MST 6:45 PM MST
Moon 8:42 AM MST (12/4) 7:29 PM MST (12/4)
Length of Visible Light 11h 02m
Length of Day
10h 09m
Waxing Crescent, 5% of the Moon is Illuminated
Dec 4
Waxing Crescent
Dec 9
First Quarter
Dec 17
Full
Dec 25
Last Quarter
Jan 1
New

Hourly Weather History & Observations

Time (MST) Temp. Windchill Dew Point Humidity Pressure Visibility Wind Dir Wind Speed Gust Speed Precip Events Conditions
12:58 AM 59.9 °F - 39.4 °F 47% 29.71 in 10.0 mi NE 4.6 mph - N/A   Mostly Cloudy
1:58 AM 59.7 °F - 38.5 °F 45% 29.69 in 10.0 mi SSE 4.6 mph - N/A   Mostly Cloudy
2:58 AM 57.7 °F - 39.4 °F 50% 29.69 in 10.0 mi Calm Calm - N/A   Mostly Cloudy
3:58 AM 57.2 °F - 41.5 °F 56% 29.69 in 10.0 mi NE 10.4 mph - N/A   Clear
4:58 AM 56.1 °F - 42.4 °F 60% 29.69 in 10.0 mi Calm Calm - N/A   Clear
5:58 AM 57.7 °F - 43.0 °F 58% 29.71 in 10.0 mi North 11.5 mph - N/A   Clear
6:58 AM 57.4 °F - 44.6 °F 62% 29.73 in 10.0 mi NNW 3.5 mph - N/A   Overcast
7:58 AM 58.3 °F - 45.7 °F 63% 29.75 in 10.0 mi SSW 2.3 mph - N/A   Partly Cloudy
8:58 AM 60.6 °F - 45.5 °F 57% 29.76 in 10.0 mi SW 10.4 mph - N/A   Partly Cloudy
9:58 AM 63.1 °F - 41.7 °F 46% 29.77 in 10.0 mi SW 12.7 mph - N/A   Clear
10:58 AM 64.8 °F - 35.8 °F 34% 29.78 in 10.0 mi SW 15.0 mph 25.3 mph N/A   Clear
11:58 AM 64.9 °F - 32.4 °F 30% 29.75 in 10.0 mi WSW 12.7 mph - N/A   Clear
12:58 PM 66.4 °F - 31.3 °F 27% 29.73 in 10.0 mi West 16.1 mph 21.9 mph N/A   Partly Cloudy
1:58 PM 64.9 °F - 33.6 °F 31% 29.72 in 10.0 mi WSW 20.7 mph 28.8 mph N/A   Partly Cloudy
2:58 PM 63.1 °F - 35.4 °F 36% 29.75 in 10.0 mi SW 15.0 mph 23.0 mph N/A   Partly Cloudy
3:08 PM 62.6 °F - 35.6 °F 37% 29.82 in 10.0 mi West 15.0 mph - N/A   Scattered Clouds
3:58 PM 62.4 °F - 37.4 °F 40% 29.83 in 10.0 mi WSW 17.3 mph 24.2 mph N/A   Partly Cloudy
4:37 PM 60.8 °F - 37.4 °F 42% 29.84 in 10.0 mi WNW 16.1 mph 27.6 mph N/A   Mostly Cloudy
4:58 PM 56.3 °F - 43.2 °F 61% 29.79 in 10.0 mi NNW 12.7 mph - N/A   Overcast
5:58 PM 52.9 °F - 42.4 °F 68% 29.81 in 10.0 mi NW 8.1 mph - N/A   Partly Cloudy
6:58 PM 52.0 °F - 42.3 °F 69% 29.84 in 10.0 mi NW 5.8 mph - N/A   Overcast
7:58 PM 51.6 °F - 41.5 °F 68% 29.84 in 10.0 mi NNW 6.9 mph - N/A   Overcast
8:58 PM 48.9 °F - 42.1 °F 77% 29.86 in 10.0 mi NW 9.2 mph - N/A   Partly Cloudy
9:48 PM 46.4 °F 41.9 °F 42.8 °F 87% 29.92 in 10.0 mi WNW 9.2 mph - N/A Rain Light Rain
9:58 PM 47.1 °F - 43.3 °F 87% 29.87 in 10.0 mi WNW 10.4 mph - 0.00 in Rain Light Rain
10:20 PM 46.4 °F 42.4 °F 44.6 °F 93% 29.92 in 10.0 mi NW 8.1 mph - N/A   Mostly Cloudy
10:32 PM 46.4 °F 42.9 °F 44.6 °F 93% 29.92 in 10.0 mi NNW 6.9 mph - N/A   Light Drizzle
10:58 PM 46.2 °F 45.0 °F 44.1 °F 92% 29.88 in 10.0 mi NNW 3.5 mph - 0.00 in Rain Light Rain
11:01 PM 46.4 °F 45.2 °F 42.8 °F 87% 29.93 in 10.0 mi NW 3.5 mph - N/A   Scattered Clouds
11:21 PM 46.4 °F 42.9 °F 42.8 °F 87% 29.93 in 9.0 mi NW 6.9 mph - N/A   Partly Cloudy
11:26 PM 46.4 °F 43.5 °F 42.8 °F 87% 29.93 in 10.0 mi WNW 5.8 mph - N/A   Scattered Clouds
11:33 PM 46.4 °F 43.5 °F 44.6 °F 93% 29.92 in 10.0 mi WNW 5.8 mph - N/A Rain Light Rain
11:43 PM 44.6 °F 43.1 °F 44.6 °F 100% 29.92 in 9.0 mi WNW 3.5 mph - N/A Rain Rain
11:53 PM 44.6 °F 42.2 °F 44.6 °F 100% 29.92 in 6.0 mi NNW 4.6 mph - N/A Rain Light Rain
11:58 PM 45.1 °F 42.8 °F 44.6 °F 98% 29.87 in 6.0 mi NW 4.6 mph - 0.02 in Rain Light Rain